Weather History for Punta Gorda, FL

Change the Weather History Date:

Wednesday, April 17, 2013

  Actual Average Record
Temperature  
Mean Temperature 78 °F -  
Max Temperature 89 °F 81 °F 90 °F (2012)
Min Temperature 66 °F 58 °F 48 °F (2005)
Cooling Degree Days 12    
Growing Degree Days 28 (Base 50)    
Moisture  
Dew Point 64 °F    
Average Humidity 67    
Maximum Humidity 97    
Minimum Humidity 36    
Precipitation  
Precipitation 0.00 in - - ()
Sea Level Pressure  
Sea Level Pressure 30.10 in    
Wind  
Wind Speed 7 mph (ENE)    
Max Wind Speed 14 mph    
Max Gust Speed 21 mph    
Visibility 10 miles    
Events      
Averages and records for this station are not official NWS values.
T = Trace of Precipitation, MM = Missing Value Source: NWS Daily Summary

Daily Weather History Graph

Daily Weather History Graph

Search for Another Location

Airport:

Trip Planner

Search our weather history database for the weather conditions in past years. The results will help you decide how hot, cold, wet, or windy it might be!

Date:

Astronomy

Apr. 17, 2013 Rise Set
Actual Time 7:01 AM EDT 7:53 PM EDT
Civil Twilight 6:37 AM EDT 8:17 PM EDT
Nautical Twilight 6:09 AM EDT 8:45 PM EDT
Astronomical Twilight 5:41 AM EDT 9:14 PM EDT
Moon 12:25 PM EDT (4/17) 1:19 AM EDT (4/17)
Length of Visible Light 13h 39m
Length of Day
12h 51m
Waxing Crescent, 42% of the Moon is Illuminated
Apr 17
Waxing Crescent
Apr 18
First Quarter
Apr 25
Full
May 2
Last Quarter
May 9
New

Hourly Weather History & Observations

Time (EDT) Temp. Heat Index Dew Point Humidity Pressure Visibility Wind Dir Wind Speed Gust Speed Precip Events Conditions
12:53 AM 72.0 °F - 68.0 °F 87% 30.15 in 10.0 mi ENE 6.9 mph - N/A   Clear
1:53 AM 70.0 °F - 66.9 °F 90% 30.14 in 10.0 mi ENE 4.6 mph - N/A   Clear
2:53 AM 66.9 °F - 66.0 °F 97% 30.13 in 10.0 mi ENE 4.6 mph - N/A   Clear
3:53 AM 66.0 °F - 64.9 °F 96% 30.12 in 10.0 mi NNE 4.6 mph - N/A   Clear
4:53 AM 66.0 °F - 64.9 °F 96% 30.11 in 8.0 mi ENE 3.5 mph - N/A   Clear
5:53 AM 66.0 °F - 64.9 °F 96% 30.12 in 6.0 mi NNE 5.8 mph - N/A   Clear
6:53 AM 66.0 °F - 64.9 °F 96% 30.13 in 9.0 mi NE 5.8 mph - N/A   Clear
7:53 AM 68.0 °F - 66.0 °F 93% 30.15 in 10.0 mi NE 6.9 mph - N/A   Clear
8:53 AM 73.9 °F - 68.0 °F 82% 30.15 in 10.0 mi ENE 11.5 mph - N/A   Clear
10:53 AM 81.0 °F 82.7 °F 64.9 °F 58% 30.14 in 10.0 mi East 13.8 mph - N/A   Clear
11:53 AM 84.0 °F 85.8 °F 64.9 °F 53% 30.12 in 10.0 mi ENE 12.7 mph - N/A   Clear
12:53 PM 86.0 °F 87.3 °F 64.0 °F 48% 30.10 in 10.0 mi East 11.5 mph 18.4 mph N/A   Partly Cloudy
1:53 PM 87.1 °F 87.8 °F 63.0 °F 44% 30.08 in 10.0 mi NE 11.5 mph 20.7 mph N/A   Scattered Clouds
2:53 PM 88.0 °F 87.9 °F 61.0 °F 40% 30.06 in 10.0 mi ENE 12.7 mph 19.6 mph N/A   Clear
3:53 PM 89.1 °F 88.8 °F 60.1 °F 38% 30.05 in 10.0 mi NE 10.4 mph - N/A   Partly Cloudy
4:53 PM 89.1 °F 88.2 °F 59.0 °F 36% 30.04 in 10.0 mi ENE 6.9 mph - N/A   Clear
5:53 PM 88.0 °F 87.1 °F 59.0 °F 37% 30.03 in 10.0 mi ENE 6.9 mph - N/A   Clear
6:53 PM 84.9 °F 84.8 °F 60.1 °F 43% 30.04 in 10.0 mi East 9.2 mph - N/A   Scattered Clouds
7:53 PM 80.1 °F 81.2 °F 62.1 °F 54% 30.04 in 10.0 mi East 6.9 mph - N/A   Clear
8:53 PM 78.1 °F - 63.0 °F 60% 30.06 in 10.0 mi East 6.9 mph - N/A   Clear
9:53 PM 75.9 °F - 63.0 °F 64% 30.08 in 10.0 mi East 10.4 mph - N/A   Clear
10:53 PM 73.9 °F - 63.0 °F 68% 30.09 in 10.0 mi East 6.9 mph - N/A   Clear
11:53 PM 72.0 °F - 64.0 °F 76% 30.08 in 10.0 mi East 5.8 mph - N/A   Clear